Flag for Canada Weather past 2 weeks in Sarnia, Ontario, Canada

Now
61 °F

Overcast.


Feels Like: 61 °F
Forecast: 57 / 70 °F
Wind: 13 mph from Northeast

Location: Sarnia Airport

Current Time: Jul 7, 2015 at 8:38:37 PM

Latest Report: Jul 7, 2015 at 8:00 PM


Visibility: 9 mi

Pressure: 29.96 "Hg

Humidity: 83%

Dew point: 55 °F

Location of SarniaLocation

Historic Weather in Sarnia — Graph

°F

Sarnia temperature yesterday

Maximum temperature yesterday: 82 °F (at 3:00 PM)
Minimum temperature yesterday: 57 °F (at 5:54 AM)
Average temperature yesterday: 71 °F

Past Weeks' High & Low Weather Summary

 TemperatureHumidityPressure
High82 °F (Jul 6, 3:00 PM)100% (Jul 2, 3:00 AM)30.16 "Hg (Jul 2, 3:00 AM)
Low50 °F (Jul 3, 4:00 AM)30% (Jun 24, 4:00 PM)29.67 "Hg (Jun 23, 3:00 AM)
Average65 °F78%29.93 "Hg
* Reported Jun 22 7:00 PM — Jul 7 7:00 PM, Sarnia, Weather by CustomWeather, © 2015

Note: Actual official high and low records may vary slightly from our data, if they occured in-between our weather recording intervals... More about our weather records

Advertising

Sarnia weather history for previous 24 hours

 ConditionsComfort  
Time TempWeatherWind HumidityBarometerVisibility
7:00 PM
Tue, Jul 7
61 °FOvercast.20 mph88%29.95 "Hg9 mi
6:00 PM61 °FCloudy.18 mph94%29.94 "Hg9 mi
5:00 PM61 °FLight rain. Fog.20 mph94%29.93 "Hg2 mi
4:56 PM61 °FLight rain. Fog.20 mph94%29.92 "Hg2 mi
4:00 PM61 °FFog.16 mph100%29.90 "Hg2 mi
3:56 PM61 °FFog.16 mph100%29.90 "Hg2 mi
3:00 PM63 °FLight rain. Fog.17 mph94%29.88 "Hg6 mi
2:04 PM75 °FLight rain. Fog.13 mph89%29.81 "Hg6 mi
1:00 PM75 °FLight rain. Fog.8 mph89%29.82 "Hg5 mi
12:00 PM75 °FLight rain. Fog.7 mph89%29.82 "Hg3 mi
11:55 AM75 °FLight rain. Fog.7 mph89%29.82 "Hg3 mi
11:00 AM73 °FLight rain. Fog.12 mph94%29.83 "Hg3 mi
10:52 AM73 °FLight rain. Fog.12 mph94%29.82 "Hg3 mi
10:02 AM75 °FLight rain. Broken clouds.12 mph83%29.83 "Hg4 mi
9:00 AM75 °FPartly sunny.12 mph83%29.84 "Hg5 mi
8:00 AM73 °FPartly sunny.9 mph83%29.84 "Hg5 mi
7:00 AM72 °FFog.8 mph88%29.84 "Hg5 mi
6:00 AM72 °FMostly cloudy.9 mph83%29.84 "Hg7 mi
5:00 AM72 °FPassing clouds.10 mph83%29.83 "Hg7 mi
4:00 AM70 °FClear.9 mph83%29.85 "Hg9 mi
3:00 AM70 °FClear.8 mph78%29.87 "Hg9 mi
2:00 AM68 °FClear.8 mph83%29.89 "Hg9 mi
1:00 AM68 °FClear.7 mph78%29.90 "Hg9 mi
12:00 AM68 °FClear.8 mph78%29.92 "Hg9 mi
11:00 PM
Mon, Jul 6
70 °FClear.7 mph78%29.92 "Hg9 mi
10:00 PM72 °FSunny.9 mph69%29.90 "Hg9 mi
9:00 PM73 °FSunny.9 mph65%29.91 "Hg9 mi
8:00 PM77 °FSunny.7 mph61%29.94 "Hg9 mi
Weather by CustomWeather, © 2015

See weather overviewHow to use our weather pages